Chester, SC

4:33 AM EDT on October 17, 2019 (GMT -0400)
Chester

Weather History for KDCM - August, 2019

Change the Weather History Date:

Friday, August 30, 2019

  Actual Average (KUZA) Record (KUZA)
Temperature  
Mean Temperature 73 °F -  
Max Temperature 87 °F 86 °F 96 °F (1956)
Min Temperature 59 °F 66 °F 54 °F (1968)
Cooling Degree Days 8    
Growing Degree Days 23 (Base 50)    
Moisture  
Dew Point 54 °F    
Average Humidity 56    
Maximum Humidity 94    
Minimum Humidity 27    
Precipitation  
Precipitation 0.00 in - - ()
Sea Level Pressure  
Sea Level Pressure 30.13 in    
Wind  
Wind Speed 1 mph (NE)    
Max Wind Speed 10 mph    
Max Gust Speed -    
Visibility 8 miles    
Events Thunderstorm    
Averages and records for this station are not official NWS values.
T = Trace of Precipitation, MM = Missing Value Source: NWS Daily Summary

Daily Weather History Graph

Daily Weather History Graph

Search for Another Location

Airport or City:

Astronomy

Aug. 30, 2019 Rise Set
Actual Time 6:56 AM EDT 7:54 PM EDT
Civil Twilight 6:30 AM EDT 8:20 PM EDT
Nautical Twilight 5:59 AM EDT 8:50 PM EDT
Astronomical Twilight 5:27 AM EDT 9:22 PM EDT
Moon 6:57 AM EDT (8/30) 8:29 PM EDT (8/30)
Length of Visible Light 13h 49m
Length of Day
12h 58m
New Moon, 0% of the Moon is Illuminated
Aug 30
New Moon
Sep 5
First Quarter
Sep 14
Full
Sep 21
Last Quarter
Sep 28
New

Hourly Weather History & Observations

Time (EDT) Temp. Heat Index Dew Point Humidity Pressure Visibility Wind Dir Wind Speed Gust Speed Precip Events Conditions
12:15 AM 64.4 °F - 55.4 °F 73% 30.11 in 10.0 mi Calm Calm - N/A   Clear
12:35 AM 64.4 °F - 53.6 °F 68% 30.11 in 10.0 mi Calm Calm - N/A   Clear
12:55 AM 62.6 °F - 53.6 °F 72% 30.11 in 10.0 mi Calm Calm - N/A   Clear
1:15 AM 62.6 °F - 53.6 °F 72% 30.11 in 10.0 mi Calm Calm - N/A   Clear
1:35 AM 62.6 °F - 55.4 °F 77% 30.11 in 10.0 mi Calm Calm - N/A   Clear
1:55 AM 62.6 °F - 51.8 °F 68% 30.11 in 7.0 mi Calm Calm - N/A   Clear
2:15 AM 62.6 °F - 53.6 °F 72% 30.10 in 10.0 mi Calm Calm - N/A   Clear
2:35 AM 62.6 °F - 53.6 °F 72% 30.10 in 10.0 mi Calm Calm - N/A   Clear
3:15 AM 60.8 °F - 55.4 °F 82% 30.10 in 10.0 mi Calm Calm - N/A   Clear
3:35 AM 60.8 °F - 53.6 °F 77% 30.09 in 10.0 mi Calm Calm - N/A   Clear
3:55 AM 60.8 °F - 55.4 °F 82% 30.09 in 10.0 mi Calm Calm - N/A   Clear
4:15 AM 60.8 °F - 55.4 °F 82% 30.09 in 7.0 mi Calm Calm - N/A   Clear
4:35 AM 60.8 °F - 55.4 °F 82% 30.09 in 10.0 mi Calm Calm - N/A   Clear
4:55 AM 60.8 °F - 55.4 °F 82% 30.10 in 7.0 mi Calm Calm - N/A   Clear
5:15 AM 59.0 °F - 55.4 °F 88% 30.11 in 7.0 mi Calm Calm - N/A   Clear
5:35 AM 60.8 °F - 55.4 °F 82% 30.11 in 7.0 mi Calm Calm - N/A   Clear
5:55 AM 60.8 °F - 55.4 °F 82% 30.11 in 7.0 mi Calm Calm - N/A   Clear
6:15 AM 59.0 °F - 57.2 °F 94% 30.11 in 10.0 mi Calm Calm - N/A   Clear
6:55 AM 60.8 °F - 55.4 °F 82% 30.12 in 7.0 mi Calm Calm - N/A   Clear
7:15 AM 60.8 °F - 55.4 °F 82% 30.13 in 7.0 mi Calm Calm - N/A   Clear
7:35 AM 59.0 °F - 55.4 °F 88% 30.14 in 7.0 mi Calm Calm - N/A   Clear
7:55 AM 62.6 °F - 59.0 °F 88% 30.14 in 7.0 mi Calm Calm - N/A   Clear
8:15 AM 64.4 °F - 59.0 °F 83% 30.14 in 7.0 mi Calm Calm - N/A   Clear
8:35 AM 64.4 °F - 59.0 °F 83% 30.15 in 7.0 mi Calm Calm - N/A   Clear
8:55 AM 68.0 °F - 59.0 °F 73% 30.15 in 7.0 mi Calm Calm - N/A   Clear
9:15 AM 69.8 °F - 57.2 °F 64% 30.15 in 10.0 mi Calm Calm - N/A   Clear
9:35 AM 71.6 °F - 57.2 °F 60% 30.16 in 7.0 mi Calm Calm - N/A   Clear
9:55 AM 73.4 °F - 55.4 °F 53% 30.16 in 7.0 mi Calm Calm - N/A Thunderstorm Clear
10:15 AM 75.2 °F - 55.4 °F 50% 30.17 in 7.0 mi Calm Calm - N/A   Clear
10:35 AM 78.8 °F - 55.4 °F 44% 30.17 in 10.0 mi North 3.5 mph - N/A   Clear
10:55 AM 78.8 °F - 53.6 °F 42% 30.18 in 7.0 mi NW 3.5 mph - N/A   Clear
11:35 AM 80.6 °F 80.3 °F 53.6 °F 39% 30.18 in 10.0 mi North 4.6 mph - N/A   Clear
11:55 AM 80.6 °F - 51.8 °F 37% 30.17 in 5.0 mi Calm Calm - N/A   Haze
12:15 PM 82.4 °F - 51.8 °F 35% 30.17 in 7.0 mi North 4.6 mph - N/A   Clear
12:35 PM 82.4 °F - 51.8 °F 35% 30.16 in 10.0 mi North 4.6 mph - N/A   Clear
12:55 PM 82.4 °F - 51.8 °F 35% 30.16 in 7.0 mi Calm Calm - N/A   Clear
1:15 PM 84.2 °F - 51.8 °F 33% 30.16 in 7.0 mi Calm Calm - N/A   Clear
1:35 PM 84.2 °F - 51.8 °F 33% 30.15 in 7.0 mi North 4.6 mph - N/A   Clear
1:55 PM 84.2 °F - 51.8 °F 33% 30.14 in 7.0 mi Calm Calm - N/A   Clear
2:15 PM 86.0 °F - 51.8 °F 31% 30.14 in 10.0 mi East 10.4 mph - N/A   Clear
2:35 PM 86.0 °F - 50.0 °F 29% 30.13 in 7.0 mi Calm Calm - N/A   Clear
2:55 PM 86.0 °F - 51.8 °F 31% 30.12 in 7.0 mi North 8.1 mph - N/A Thunderstorm Clear
3:15 PM 86.0 °F - 50.0 °F 29% 30.12 in 7.0 mi NE 4.6 mph - N/A   Clear
3:35 PM 86.0 °F - 50.0 °F 29% 30.12 in 10.0 mi NE 6.9 mph - N/A Thunderstorm Clear
3:55 PM 86.0 °F - 50.0 °F 29% 30.11 in 10.0 mi East 6.9 mph - N/A   Clear
4:15 PM 87.8 °F - 50.0 °F 27% 30.10 in 10.0 mi Calm Calm - N/A   Clear
4:35 PM 87.8 °F - 50.0 °F 27% 30.09 in 10.0 mi NE 6.9 mph - N/A   Clear
4:55 PM 87.8 °F - 50.0 °F 27% 30.09 in 7.0 mi North 4.6 mph - N/A   Clear
5:15 PM 87.8 °F - 50.0 °F 27% 30.09 in 7.0 mi NE 4.6 mph - N/A   Clear
5:35 PM 87.8 °F - 50.0 °F 27% 30.09 in 7.0 mi East 6.9 mph - N/A   Clear
5:55 PM 86.0 °F - 50.0 °F 29% 30.09 in 10.0 mi NE 8.1 mph - N/A   Clear
6:15 PM 86.0 °F - 50.0 °F 29% 30.10 in 10.0 mi East 3.5 mph - N/A   Clear
6:35 PM 86.0 °F - 51.8 °F 31% 30.10 in 10.0 mi East 4.6 mph - N/A   Clear
6:55 PM 84.2 °F - 51.8 °F 33% 30.10 in 7.0 mi ENE 4.6 mph - N/A   Clear
7:15 PM 82.4 °F - 51.8 °F 35% 30.11 in 7.0 mi East 3.5 mph - N/A   Clear
7:35 PM 80.6 °F 80.3 °F 53.6 °F 39% 30.11 in 7.0 mi East 4.6 mph - N/A   Clear
7:55 PM 77.0 °F - 57.2 °F 50% 30.11 in 7.0 mi Calm Calm - N/A   Clear
8:15 PM 75.2 °F - 57.2 °F 53% 30.12 in 10.0 mi Calm Calm - N/A   Clear
8:35 PM 73.4 °F - 55.4 °F 53% 30.12 in 10.0 mi Calm Calm - N/A   Clear
8:55 PM 73.4 °F - 55.4 °F 53% 30.13 in 10.0 mi Calm Calm - N/A   Clear
9:15 PM 71.6 °F - 55.4 °F 57% 30.14 in 10.0 mi Calm Calm - N/A   Clear
9:35 PM 71.6 °F - 57.2 °F 60% 30.14 in 10.0 mi Calm Calm - N/A   Clear
9:55 PM 69.8 °F - 57.2 °F 64% 30.15 in 10.0 mi Calm Calm - N/A   Clear
10:15 PM 69.8 °F - 57.2 °F 64% 30.16 in 10.0 mi Calm Calm - N/A   Clear
10:35 PM 69.8 °F - 57.2 °F 64% 30.16 in 10.0 mi Calm Calm - N/A   Clear
10:55 PM 69.8 °F - 57.2 °F 64% 30.16 in 10.0 mi Calm Calm - N/A   Clear
11:15 PM 69.8 °F - 57.2 °F 64% 30.16 in 10.0 mi Calm Calm - N/A   Clear
11:35 PM 68.0 °F - 57.2 °F 68% 30.17 in 10.0 mi Calm Calm - N/A   Clear
11:55 PM 68.0 °F - 57.2 °F 68% 30.16 in 10.0 mi Calm Calm - N/A   Clear